| time (UTC) | temp C | wind direction | speed KPH | gust KPH | rain 1hr cm | rain 24hr cm | rain mn cm | humidity % | barometer mb |
| 20260503181120 | 21 | 121 | 3.2 | 11.3 | 0.00 | 0.00 | 0.00 | 66 | 1002.2 |
| 20260503180617 | 21 | 62 | 0.0 | 11.3 | 0.00 | 0.00 | 0.00 | 65 | 1002.3 |
| 20260503180115 | 22 | 106 | 3.2 | 4.8 | 0.00 | 0.00 | 0.00 | 67 | 1002.2 |
| 20260503175611 | 22 | 21 | 0.0 | 6.4 | 0.00 | 0.00 | 0.00 | 72 | 1002.2 |
| 20260503175108 | 21 | 158 | 0.0 | 8.0 | 0.00 | 0.00 | 0.00 | 65 | 1002.3 |
| 20260503174604 | 21 | 96 | 6.4 | 8.0 | 0.00 | 0.00 | 0.00 | 69 | 1002.2 |
| 20260503174101 | 21 | 107 | 4.8 | 8.0 | 0.00 | 0.00 | 0.00 | 67 | 1002.4 |
| 20260503173551 | 21 | 118 | 1.6 | 11.3 | 0.00 | 0.00 | 0.00 | 67 | 1002.1 |
| 20260503173047 | 21 | 105 | 3.2 | 8.0 | 0.00 | 0.00 | 0.00 | 69 | 1002.6 |
| 20260503172544 | 21 | 271 | 4.8 | 8.0 | 0.00 | 0.00 | 0.00 | 69 | 1002.3 |
| 20260503172042 | 21 | 76 | 1.6 | 8.0 | 0.00 | 0.00 | 0.00 | 73 | 1002.5 |
| 20260503171538 | 20 | 108 | 4.8 | 6.4 | 0.00 | 0.00 | 0.00 | 71 | 1002.4 |
| 20260503171036 | 20 | 40 | 4.8 | 8.0 | 0.00 | 0.00 | 0.00 | 71 | 1002.3 |
| 20260503170532 | 20 | 94 | 3.2 | 4.8 | 0.00 | 0.00 | 0.00 | 74 | 1002.3 |
| 20260503150925 | 16 | 72 | 1.6 | 3.2 | 0.00 | 0.00 | 0.00 | 89 | 1002.7 |
| 20260503150421 | 15 | 89 | 0.0 | 4.8 | 0.00 | 0.00 | 0.00 | 89 | 1002.7 |
| 20260503131314 | 12 | 89 | 0.0 | 3.2 | 0.00 | 0.00 | 0.00 | 98 | 1002.3 |
| 20260503130812 | 12 | 141 | 3.2 | 4.8 | 0.00 | 0.00 | 0.00 | 98 | 1002.4 |
| 20260503130309 | 12 | 101 | 1.6 | 4.8 | 0.00 | 0.00 | 0.00 | 98 | 1002.4 |
| 20260503110703 | 13 | 145 | 1.6 | 4.8 | 0.00 | 0.00 | 0.00 | 95 | 1002.6 |
| 20260503110200 | 13 | 161 | 4.8 | 6.4 | 0.00 | 0.00 | 0.00 | 95 | 1002.6 |
| 20260503100126 | 14 | 121 | 3.2 | 4.8 | 0.00 | 0.00 | 0.00 | 92 | 1002.6 |
| 20260503081509 | 14 | 114 | 1.6 | 1.6 | 0.00 | 0.00 | 0.00 | 92 | |
| 20260503081001 | 14 | 152 | 0.0 | 3.2 | 0.00 | 0.00 | 0.00 | 92 | |
| 20260503080457 | 14 | 113 | 0.0 | 1.6 | 0.00 | 0.00 | 0.00 | 91 | |
| 20260503072928 | 15 | 173 | 0.0 | 3.2 | 0.00 | 0.00 | 0.00 | 90 | |
| 20260503072425 | 15 | 106 | 1.6 | 3.2 | 0.00 | 0.00 | 0.00 | 90 | |
| 20260503071922 | 15 | 102 | 1.6 | 3.2 | 0.00 | 0.00 | 0.00 | 90 | |
| 20260503071419 | 15 | 94 | 0.0 | 3.2 | 0.00 | 0.00 | 0.00 | 90 | |
| 20260503070915 | 15 | 72 | 0.0 | 1.6 | 0.00 | 0.00 | 0.00 | 89 | |
| 20260503070413 | 15 | 145 | 1.6 | 3.2 | 0.00 | 0.00 | 0.00 | 89 | |
| 20260503060338 | 15 | 130 | 0.0 | 3.2 | 0.00 | 0.03 | 0.03 | 90 | 1003.5 |
| 20260503054826 | 15 | 101 | 1.6 | 3.2 | 0.00 | 0.03 | 0.03 | 91 | 1003.5 |
| 20260503054322 | 14 | 95 | 1.6 | 1.6 | 0.00 | 0.03 | 0.03 | 90 | 1003.5 |
| 20260503053820 | 15 | 63 | 1.6 | 3.2 | 0.00 | 0.03 | 0.03 | 89 | 1003.5 |
| 20260503053318 | 15 | 208 | 0.0 | 3.2 | 0.00 | 0.03 | 0.03 | 89 | 1003.5 |
| 20260503052814 | 15 | 154 | 0.0 | 3.2 | 0.00 | 0.03 | 0.03 | 89 | 1003.5 |
| 20260503052311 | 15 | 133 | 0.0 | 3.2 | 0.00 | 0.03 | 0.03 | 89 | 1003.5 |
| 20260503051807 | 15 | 147 | 1.6 | 3.2 | 0.00 | 0.03 | 0.03 | 89 | 1003.5 |
| 20260503051304 | 15 | 76 | 1.6 | 1.6 | 0.00 | 0.03 | 0.03 | 89 | 1003.2 |
| 20260503050801 | 15 | 105 | 1.6 | 3.2 | 0.00 | 0.03 | 0.03 | 88 | 1003.2 |
| 20260503050257 | 15 | 150 | 1.6 | 3.2 | 0.00 | 0.03 | 0.03 | 88 | 1003.2 |
| 20260503045754 | 15 | 141 | 1.6 | 4.8 | 0.00 | 0.03 | 0.03 | 88 | 1003.2 |
| 20260503045252 | 15 | 170 | 3.2 | 3.2 | 0.00 | 0.03 | 0.03 | 87 | 1003.3 |
| 20260503044748 | 15 | 155 | 1.6 | 3.2 | 0.00 | 0.03 | 0.03 | 87 | 1003.3 |
| 20260503044245 | 15 | 105 | 0.0 | 3.2 | 0.00 | 0.03 | 0.03 | 86 | 1003.3 |
| 20260503043743 | 15 | 99 | 3.2 | 4.8 | 0.00 | 0.03 | 0.03 | 85 | 1003.3 |
| 20260503043240 | 16 | 186 | 3.2 | 3.2 | 0.00 | 0.03 | 0.03 | 85 | 1003.3 |
| 20260503042735 | 15 | 164 | 3.2 | 4.8 | 0.00 | 0.03 | 0.03 | 86 | 1003.3 |
| 20260503042232 | 15 | 139 | 1.6 | 3.2 | 0.00 | 0.03 | 0.03 | 86 | 1003.1 |
| 20260503041728 | 15 | 205 | 0.0 | 1.6 | 0.00 | 0.03 | 0.03 | 86 | 1003.1 |
| 20260503041226 | 15 | 60 | 0.0 | 3.2 | 0.00 | 0.03 | 0.03 | 86 | 1003.1 |
| 20260503040723 | 15 | 166 | 3.2 | 4.8 | 0.00 | 0.03 | 0.03 | 86 | 1003.1 |
| 20260503040220 | 15 | 124 | 3.2 | 3.2 | 0.00 | 0.03 | 0.03 | 85 | 1002.9 |
| 20260503035717 | 16 | 103 | 0.0 | 1.6 | 0.00 | 0.03 | 0.03 | 84 | 1003.1 |
| 20260503035215 | 16 | 108 | 1.6 | 4.8 | 0.00 | 0.03 | 0.03 | 84 | 1003.1 |
| 20260503034712 | 15 | 125 | 3.2 | 4.8 | 0.00 | 0.03 | 0.03 | 86 | 1002.9 |
| 20260503034209 | 15 | 65 | 3.2 | 3.2 | 0.00 | 0.03 | 0.03 | 87 | 1002.6 |
| 20260503033706 | 15 | 119 | 3.2 | 3.2 | 0.00 | 0.03 | 0.03 | 87 | 1002.6 |
| 20260503033203 | 16 | 88 | 3.2 | 3.2 | 0.00 | 0.03 | 0.03 | 85 | 1002.6 |
| 20260503032701 | 16 | 196 | 3.2 | 4.8 | 0.00 | 0.03 | 0.03 | 84 | 1002.6 |
| 20260503032200 | 16 | 175 | 3.2 | 3.2 | 0.00 | 0.03 | 0.03 | 82 | 1002.6 |
| 20260503031656 | 16 | 89 | 0.0 | 6.4 | 0.00 | 0.03 | 0.03 | 84 | 1002.3 |
| 20260503031155 | 16 | 85 | 1.6 | 3.2 | 0.00 | 0.03 | 0.03 | 85 | 1002.3 |
| 20260503030650 | 16 | 94 | 4.8 | 4.8 | 0.00 | 0.03 | 0.03 | 85 | 1002.3 |
| 20260503030147 | 15 | 89 | 0.0 | 1.6 | 0.00 | 0.03 | 0.03 | 85 | 1002.1 |
| 20260503025644 | 15 | 89 | 0.0 | 4.8 | 0.00 | 0.03 | 0.03 | 85 | 1002.1 |
| 20260503025142 | 15 | 18 | 0.0 | 3.2 | 0.00 | 0.03 | 0.03 | 86 | 1002.1 |
| 20260503024638 | 15 | 147 | 3.2 | 3.2 | 0.00 | 0.03 | 0.03 | 86 | 1002.1 |
| 20260503024136 | 16 | 142 | 0.0 | 3.2 | 0.00 | 0.03 | 0.03 | 85 | 1003.0 |
| 20260503023632 | 16 | 129 | 0.0 | 1.6 | 0.00 | 0.03 | 0.03 | 86 | 1003.0 |
| 20260503023129 | 16 | 174 | 0.0 | 3.2 | 0.00 | 0.03 | 0.03 | 86 | 1003.0 |
| 20260503022625 | 16 | 29 | 0.0 | 3.2 | 0.00 | 0.03 | 0.03 | 86 | 1003.0 |
| 20260503022120 | 16 | 287 | 0.0 | 3.2 | 0.00 | 0.03 | 0.03 | 85 | 1003.0 |
| 20260503021617 | 16 | 37 | 0.0 | 3.2 | 0.00 | 0.03 | 0.03 | 83 | 1003.0 |
| 20260503021114 | 16 | 75 | 0.0 | 0.0 | 0.00 | 0.03 | 0.03 | 81 | 1003.0 |
| 20260503020611 | 17 | 248 | 0.0 | 6.4 | 0.00 | 0.03 | 0.03 | 78 | 1003.0 |
| 20260503020108 | 17 | 127 | 0.0 | 3.2 | 0.00 | 0.03 | 0.03 | 79 | 1003.0 |
| 20260503015605 | 17 | 351 | 1.6 | 4.8 | 0.00 | 0.03 | 0.03 | 81 | 1003.0 |
| 20260503015102 | 17 | 311 | 3.2 | 4.8 | 0.00 | 0.03 | 0.03 | 80 | 1003.4 |
| 20260503014557 | 17 | 84 | 1.6 | 9.7 | 0.00 | 0.03 | 0.03 | 78 | 1003.4 |
| 20260503014055 | 17 | 348 | 3.2 | 8.0 | 0.00 | 0.03 | 0.03 | 77 | 1003.8 |
| 20260503013552 | 17 | 0 | 4.8 | 11.3 | 0.00 | 0.03 | 0.03 | 76 | 1003.5 |
| 20260503013050 | 18 | 194 | 1.6 | 6.4 | 0.00 | 0.03 | 0.03 | 75 | 1003.3 |
| 20260503012548 | 17 | 10 | 3.2 | 8.0 | 0.00 | 0.03 | 0.03 | 78 | 1003.3 |
| 20260503012044 | 18 | 326 | 3.2 | 6.4 | 0.00 | 0.03 | 0.03 | 73 | 1003.3 |
| 20260503011540 | 18 | 319 | 3.2 | 6.4 | 0.00 | 0.03 | 0.03 | 72 | 1003.2 |
| 20260503011038 | 18 | 308 | 4.8 | 6.4 | 0.00 | 0.03 | 0.03 | 74 | 1003.2 |
| 20260503010534 | 18 | 335 | 0.0 | 4.8 | 0.00 | 0.03 | 0.03 | 74 | 1003.2 |
| 20260503010032 | 18 | 129 | 0.0 | 3.2 | 0.00 | 0.03 | 0.03 | 72 | 1003.0 |
| 20260503005528 | 18 | 126 | 3.2 | 4.8 | 0.00 | 0.03 | 0.03 | 72 | 1003.0 |
| 20260503005026 | 18 | 305 | 3.2 | 4.8 | 0.00 | 0.03 | 0.03 | 72 | 1002.8 |
| 20260503004522 | 18 | 109 | 3.2 | 3.2 | 0.00 | 0.03 | 0.03 | 74 | 1002.8 |
| 20260503004020 | 18 | 228 | 3.2 | 8.0 | 0.00 | 0.03 | 0.03 | 71 | 1002.8 |
| 20260503003516 | 18 | 289 | 1.6 | 8.0 | 0.00 | 0.03 | 0.03 | 73 | 1002.8 |
| 20260503003014 | 18 | 294 | 4.8 | 9.7 | 0.00 | 0.03 | 0.03 | 72 | 1003.0 |
| 20260503002511 | 18 | 219 | 3.2 | 6.4 | 0.00 | 0.03 | 0.03 | 70 | 1002.9 |
| 20260503002007 | 18 | 246 | 3.2 | 4.8 | 0.00 | 0.03 | 0.03 | 70 | 1002.9 |
| 20260503001504 | 18 | 321 | 1.6 | 6.4 | 0.00 | 0.03 | 0.03 | 74 | 1002.9 |
| 20260503001001 | 18 | 266 | 4.8 | 8.0 | 0.00 | 0.03 | 0.03 | 72 | 1002.7 |
| 20260503000459 | 18 | 111 | 4.8 | 4.8 | 0.00 | 0.03 | 0.03 | 73 | 1002.7 |
| 20260502235955 | 18 | 138 | 3.2 | 8.0 | 0.00 | 0.03 | 0.03 | 72 | 1002.7 |
| 20260502235452 | 18 | 119 | 0.0 | 9.7 | 0.00 | 0.03 | 0.03 | 72 | 1002.7 |
| 20260502234949 | 18 | 74 | 1.6 | 8.0 | 0.00 | 0.03 | 0.03 | 70 | 1002.6 |
| 20260502234441 | 18 | 87 | 4.8 | 6.4 | 0.00 | 0.03 | 0.03 | 74 | 1002.6 |
| 20260502233938 | 18 | 292 | 4.8 | 11.3 | 0.00 | 0.03 | 0.03 | 73 | 1002.9 |
| 20260502233433 | 18 | 59 | 3.2 | 14.5 | 0.00 | 0.03 | 0.03 | 71 | 1002.8 |
| 20260502232931 | 18 | 292 | 3.2 | 9.7 | 0.00 | 0.03 | 0.03 | 74 | 1002.8 |
| 20260502232427 | 18 | 323 | 1.6 | 4.8 | 0.00 | 0.03 | 0.03 | 74 | 1003.1 |
| 20260502231924 | 18 | 259 | 9.7 | 9.7 | 0.00 | 0.03 | 0.03 | 72 | 1003.2 |
| 20260502231421 | 18 | 101 | 4.8 | 8.0 | 0.00 | 0.03 | 0.03 | 73 | 1003.2 |
| 20260502230919 | 18 | 50 | 0.0 | 12.9 | 0.00 | 0.03 | 0.03 | 73 | 1003.2 |
| 20260502230417 | 18 | 126 | 0.0 | 8.0 | 0.00 | 0.03 | 0.03 | 73 | 1003.3 |
| 20260502225915 | 18 | 108 | 0.0 | 8.0 | 0.00 | 0.03 | 0.03 | 72 | 1003.4 |
| 20260502225411 | 19 | 297 | 6.4 | 8.0 | 0.00 | 0.03 | 0.03 | 70 | 1003.5 |
| 20260502224908 | 18 | 291 | 1.6 | 8.0 | 0.00 | 0.03 | 0.03 | 73 | 1003.6 |
| 20260502224403 | 18 | 72 | 3.2 | 4.8 | 0.00 | 0.03 | 0.03 | 71 | 1003.9 |
| 20260502223901 | 18 | 103 | 3.2 | 4.8 | 0.00 | 0.03 | 0.03 | 76 | 1003.9 |
| 20260502223359 | 18 | 333 | 0.0 | 4.8 | 0.00 | 0.03 | 0.03 | 75 | 1004.1 |
| 20260502222856 | 17 | 33 | 1.6 | 4.8 | 0.00 | 0.03 | 0.03 | 76 | 1003.9 |
| 20260502222354 | 17 | 58 | 6.4 | 8.0 | 0.00 | 0.03 | 0.03 | 73 | 1004.0 |
| 20260502221849 | 18 | 69 | 3.2 | 4.8 | 0.00 | 0.03 | 0.03 | 72 | 1004.1 |
| 20260502221346 | 17 | 235 | 0.0 | 4.8 | 0.00 | 0.03 | 0.03 | 72 | 1004.1 |
| 20260502220843 | 17 | 240 | 1.6 | 4.8 | 0.00 | 0.03 | 0.03 | 72 | 1004.1 |
| 20260502220339 | 17 | 209 | 0.0 | 12.9 | 0.00 | 0.03 | 0.03 | 75 | 1004.1 |
| 20260502215835 | 17 | 50 | 0.0 | 11.3 | 0.00 | 0.03 | 0.03 | 75 | 1004.1 |
| 20260502215333 | 17 | 129 | 4.8 | 9.7 | 0.00 | 0.03 | 0.03 | 74 | 1004.1 |
| 20260502214830 | 17 | 306 | 4.8 | 12.9 | 0.00 | 0.03 | 0.03 | 75 | 1004.3 |
| 20260502214326 | 17 | 137 | 6.4 | 11.3 | 0.00 | 0.03 | 0.03 | 72 | 1004.3 |
| 20260502213824 | 17 | 87 | 1.6 | 11.3 | 0.00 | 0.03 | 0.03 | 70 | 1004.5 |
| 20260502213321 | 18 | 100 | 4.8 | 8.0 | 0.00 | 0.03 | 0.03 | 71 | 1004.5 |
| 20260502212820 | 17 | 122 | 9.7 | 14.5 | 0.00 | 0.03 | 0.03 | 72 | 1004.5 |
| 20260502212317 | 17 | 336 | 3.2 | 14.5 | 0.00 | 0.03 | 0.03 | 72 | 1004.4 |
| 20260502211814 | 18 | 22 | 3.2 | 8.0 | 0.00 | 0.03 | 0.03 | 69 | 1004.7 |
| 20260502211309 | 17 | 135 | 4.8 | 8.0 | 0.00 | 0.03 | 0.03 | 75 | 1004.6 |
| 20260502210807 | 17 | 79 | 4.8 | 11.3 | 0.00 | 0.03 | 0.03 | 71 | 1004.6 |
| 20260502210305 | 17 | 99 | 6.4 | 9.7 | 0.00 | 0.03 | 0.03 | 75 | 1004.8 |
| 20260502205802 | 17 | 358 | 4.8 | 9.7 | 0.00 | 0.03 | 0.03 | 78 | 1004.8 |
| 20260502205257 | 16 | 320 | 3.2 | 16.1 | 0.00 | 0.03 | 0.03 | 74 | 1004.9 |
| 20260502204755 | 17 | 119 | 9.7 | 12.9 | 0.00 | 0.03 | 0.03 | 74 | 1004.9 |
| 20260502204252 | 17 | 297 | 8.0 | 11.3 | 0.00 | 0.03 | 0.03 | 76 | 1004.9 |
| 20260502203750 | 17 | 76 | 1.6 | 8.0 | 0.00 | 0.03 | 0.03 | 77 | 1004.9 |
| 20260502203248 | 16 | 242 | 1.6 | 9.7 | 0.00 | 0.03 | 0.03 | 77 | 1005.4 |
| 20260502202747 | 16 | 272 | 4.8 | 14.5 | 0.00 | 0.03 | 0.03 | 75 | 1005.2 |
| 20260502202245 | 15 | 138 | 4.8 | 20.9 | 0.00 | 0.03 | 0.03 | 77 | 1005.3 |
| 20260502201743 | 15 | 77 | 12.9 | 17.7 | 0.00 | 0.03 | 0.03 | 77 | 1005.5 |
| 20260502201239 | 15 | 133 | 3.2 | 16.1 | 0.00 | 0.03 | 0.03 | 76 | 1005.3 |
| 20260502200735 | 16 | 257 | 16.1 | 16.1 | 0.00 | 0.03 | 0.03 | 72 | 1005.4 |
| 20260502200231 | 16 | 319 | 0.0 | 8.0 | 0.00 | 0.03 | 0.03 | 75 | 1005.5 |
| 20260502195730 | 15 | 261 | 1.6 | 11.3 | 0.00 | 0.03 | 0.03 | 75 | 1005.6 |
| 20260502195226 | 15 | 299 | 4.8 | 8.0 | 0.00 | 0.03 | 0.03 | 76 | 1005.6 |
| 20260502194723 | 15 | 93 | 4.8 | 14.5 | 0.00 | 0.03 | 0.03 | 76 | 1006.1 |
| 20260502194220 | 16 | 351 | 1.6 | 6.4 | 0.00 | 0.03 | 0.03 | 74 | 1005.9 |
| 20260502193715 | 15 | 173 | 3.2 | 9.7 | 0.00 | 0.03 | 0.03 | 74 | 1005.9 |
| 20260502193213 | 15 | 24 | 4.8 | 9.7 | 0.00 | 0.03 | 0.03 | 81 | 1005.9 |
| 20260502192713 | 15 | 322 | 4.8 | 9.7 | 0.00 | 0.03 | 0.03 | 74 | 1005.9 |
| 20260502192211 | 16 | 89 | 9.7 | 17.7 | 0.00 | 0.03 | 0.03 | 73 | 1005.9 |
| 20260502191708 | 15 | 277 | 6.4 | 9.7 | 0.00 | 0.03 | 0.03 | 79 | 1006.0 |
| 20260502191205 | 15 | 245 | 8.0 | 11.3 | 0.00 | 0.03 | 0.03 | 77 | 1006.1 |
| 20260502190702 | 15 | 32 | 1.6 | 9.7 | 0.00 | 0.03 | 0.03 | 78 | 1006.0 |
| 20260502190200 | 14 | 87 | 3.2 | 12.9 | 0.00 | 0.03 | 0.03 | 76 | 1006.3 |
| 20260502185659 | 15 | 248 | 6.4 | 8.0 | 0.00 | 0.03 | 0.03 | 76 | 1006.2 |
| 20260502185157 | 15 | 83 | 3.2 | 9.7 | 0.00 | 0.03 | 0.03 | 81 | 1006.3 |
| 20260502184653 | 14 | 130 | 0.0 | 8.0 | 0.00 | 0.03 | 0.03 | 79 | 1006.3 |
| 20260502184153 | 13 | 36 | 3.2 | 17.7 | 0.00 | 0.03 | 0.03 | 80 | 1006.6 |
| 20260502183650 | 15 | 97 | 1.6 | 4.8 | 0.00 | 0.03 | 0.03 | 78 | 1006.4 |
| 20260502182522 | 13 | 245 | 4.8 | 17.7 | 0.00 | 0.03 | 0.03 | 83 | 1006.6 |
| 20260502182018 | 13 | 245 | 4.8 | 17.7 | 0.00 | 0.03 | 0.03 | 83 | 1006.6 |
| 20260502181516 | 13 | 291 | 0.0 | 4.8 | 0.00 | 0.03 | 0.03 | 83 | 1006.6 |